Bahamas Express — HP5898 — position and weather

sailwx.info

Track history (hours):
 
Tides and Currents Weather Stations Pressure Air Temp Water Temp Dewpoint Dewpoint Depression Visibility Wind Speed Wind Dir Waves Ship Positions

Bahamas Express

Last reported at 2018-Jul-17 20:15 UTC. Time now 2018-Jul-18 14:42 UTC.
Position N 26°05' W 079°39'.

Length 52 m; draft 2 m.

Type: Cargo ship. MMSI: 371923000.

Date/timePositionNaut miles runAvg speedWind from/ knotsBaromVisibWave heightAir tempDewpointWater temp
2018-Jul-17 20:15N 26°05' W 079°39'2 9.6
2018-Jul-17 20:00N 26°05' W 079°42'5 9.5
2018-Jul-17 19:30N 26°05' W 079°47'5 9.5
2018-Jul-17 19:00N 26°04' W 079°52'5 9.4
2018-Jul-17 18:31N 26°04' W 079°57'4 8.6
2018-Jul-17 18:00N 26°04' W 080°02'4 8.6
2018-Jul-17 17:30N 26°06' W 080°07'2 4.1
2018-Jul-17 17:00N 26°04' W 080°08'0 0.0
2018-Jul-17 16:30N 26°04' W 080°08'0 0.0
2018-Jul-17 15:59N 26°04' W 080°08'0 0.0
2018-Jul-17 15:29N 26°04' W 080°08'0 0.0
2018-Jul-17 15:00N 26°04' W 080°08'0 0.0
2018-Jul-17 14:28N 26°04' W 080°08'0 0.0
2018-Jul-17 13:59N 26°04' W 080°08'0 0.0
2018-Jul-17 13:30N 26°04' W 080°08'0 0.0
2018-Jul-17 13:00N 26°04' W 080°08'0 0.0
2018-Jul-17 12:30N 26°04' W 080°08'0 0.0
2018-Jul-17 11:59N 26°04' W 080°08'0 0.0
2018-Jul-17 11:30N 26°04' W 080°08'0 0.2
2018-Jul-17 11:00N 26°04' W 080°08'3 5.9
2018-Jul-17 10:30N 26°06' W 080°05'5 9.8
2018-Jul-17 10:00N 26°04' W 080°00'5 9.7
2018-Jul-17 09:30N 26°02' W 079°55'5 9.2
2018-Jul-17 09:00N 25°60' W 079°51'5 9.1
2018-Jul-17 08:30N 25°58' W 079°46'5 9.0
2018-Jul-17 08:00N 25°57' W 079°41'5 0.2
2018-Jul-15 23:46N 26°00' W 079°45'2 8.0
2018-Jul-15 23:30N 26°01' W 079°47'4 7.6
2018-Jul-15 23:00N 26°02' W 079°51'4 8.7
2018-Jul-15 22:30N 26°03' W 079°56'4 8.7
2018-Jul-15 22:00N 26°04' W 080°01'5 9.8
2018-Jul-15 21:30N 26°06' W 080°06'3 5.0
2018-Jul-15 21:00N 26°04' W 080°08'0 0.0
2018-Jul-15 20:30N 26°04' W 080°08'0 0.0
2018-Jul-15 20:00N 26°04' W 080°08'0 0.0
2018-Jul-15 19:30N 26°04' W 080°08'0 0.0
2018-Jul-15 19:00N 26°04' W 080°08'0 0.0
2018-Jul-15 18:30N 26°04' W 080°08'0 0.0
2018-Jul-15 18:00N 26°04' W 080°08'0 0.0
2018-Jul-15 17:30N 26°04' W 080°08'0 0.0
2018-Jul-15 16:59N 26°04' W 080°08'0 0.0
2018-Jul-15 16:30N 26°04' W 080°08'0 0.0
2018-Jul-15 16:00N 26°04' W 080°08'0 0.0
2018-Jul-15 15:30N 26°04' W 080°08'0 0.0
2018-Jul-15 15:00N 26°04' W 080°08'0 0.0
2018-Jul-15 14:30N 26°04' W 080°08'0 0.0
2018-Jul-15 14:00N 26°04' W 080°08'0 0.0
2018-Jul-15 13:30N 26°04' W 080°08'0 0.0
2018-Jul-15 13:00N 26°04' W 080°08'0 0.0
2018-Jul-15 12:29N 26°04' W 080°08'0 0.0
2018-Jul-15 12:00N 26°04' W 080°08'0 0.1
2018-Jul-15 11:30N 26°04' W 080°08'3 5.9
2018-Jul-15 11:00N 26°06' W 080°05'5 9.3
2018-Jul-15 10:30N 26°03' W 080°01'4 7.6
2018-Jul-15 10:00N 26°02' W 079°57'4 7.4
2018-Jul-15 09:30N 25°60' W 079°53'4 7.6
2018-Jul-15 08:59N 25°58' W 079°50'4 7.5
2018-Jul-15 08:30N 25°56' W 079°46'4 7.5
2018-Jul-15 07:59N 25°54' W 079°43'8 0.2
2018-Jul-13 05:28N 26°01' W 079°40'4 9.3
2018-Jul-13 05:00N 26°01' W 079°45'5 9.3
2018-Jul-13 04:30N 26°01' W 079°50'4 8.8
2018-Jul-13 04:00N 26°01' W 079°54'4 8.7
2018-Jul-13 03:30N 26°02' W 079°59'5 9.3
2018-Jul-13 03:00N 26°05' W 080°04'3 5.8
2018-Jul-13 02:30N 26°05' W 080°07'1 2.7
2018-Jul-13 02:00N 26°04' W 080°08'0 0.0
2018-Jul-13 01:30N 26°04' W 080°08'0 0.0
2018-Jul-13 01:00N 26°04' W 080°08'0 0.0
2018-Jul-13 00:30N 26°04' W 080°08'0 0.0
2018-Jul-13 00:00N 26°04' W 080°08'0 0.0
2018-Jul-12 23:30N 26°04' W 080°08'0 0.0
2018-Jul-12 23:00N 26°04' W 080°08'0 0.0
2018-Jul-12 22:31N 26°04' W 080°08'0 0.0
2018-Jul-12 22:00N 26°04' W 080°08'0 0.0
2018-Jul-12 21:30N 26°04' W 080°08'0 0.0
2018-Jul-12 21:00N 26°04' W 080°08'0 0.0
2018-Jul-12 20:30N 26°04' W 080°08'0 0.0
2018-Jul-12 20:00N 26°04' W 080°08'0 0.0
2018-Jul-12 19:30N 26°04' W 080°08'0 0.0
2018-Jul-12 19:00N 26°04' W 080°08'0 0.0
2018-Jul-12 18:30N 26°04' W 080°08'1 1.9
2018-Jul-12 18:00N 26°04' W 080°07'3 5.8
2018-Jul-12 17:30N 26°05' W 080°04'510.6
2018-Jul-12 17:01N 26°03' W 079°58'510.8
2018-Jul-12 16:31N 26°01' W 079°53'611.5
2018-Jul-12 16:00N 25°58' W 079°47'510.6
2018-Jul-12 15:30N 25°56' W 079°42'28 0.6
2018-Jul-10 13:04N 26°24' W 079°44'111.5
2018-Jul-10 12:57N 26°23' W 079°45'511.4
2018-Jul-10 12:30N 26°19' W 079°49'611.4
2018-Jul-10 12:00N 26°15' W 079°53'611.3
2018-Jul-10 11:31N 26°12' W 079°58'510.9
2018-Jul-10 11:00N 26°08' W 080°02'5 9.0
2018-Jul-10 10:30N 26°06' W 080°07'2 3.5
2018-Jul-10 09:52N 26°04' W 080°08'0 0.0
2018-Jul-10 09:22N 26°04' W 080°08'0 0.0
2018-Jul-10 08:52N 26°04' W 080°08'0 0.0
2018-Jul-10 08:22N 26°04' W 080°08'0 0.0
2018-Jul-10 07:55N 26°04' W 080°08'0 0.0
2018-Jul-10 07:23N 26°04' W 080°08'0 0.0
2018-Jul-10 06:55N 26°04' W 080°08'0 0.0
2018-Jul-10 06:25N 26°04' W 080°08'0 0.0
2018-Jul-10 05:55N 26°04' W 080°08'0 0.0
2018-Jul-10 05:25N 26°04' W 080°08'0 0.0
2018-Jul-10 04:58N 26°04' W 080°08'0 0.0
2018-Jul-10 04:24N 26°04' W 080°08'0 0.0
2018-Jul-10 03:49N 26°04' W 080°08'0 0.0
2018-Jul-10 03:28N 26°04' W 080°08'0 0.0
2018-Jul-10 02:53N 26°04' W 080°08'0 0.0
2018-Jul-10 02:28N 26°04' W 080°08'0 0.0
2018-Jul-10 01:56N 26°04' W 080°08'0 0.0
2018-Jul-10 01:28N 26°04' W 080°08'0 0.0
2018-Jul-10 00:47N 26°04' W 080°08'0 0.0
2018-Jul-10 00:21N 26°04' W 080°08'0 0.2
2018-Jul-09 23:58N 26°04' W 080°08'0 0.0
2018-Jul-09 23:28N 26°04' W 080°08'0 0.0
2018-Jul-09 22:54N 26°04' W 080°08'0 0.0
2018-Jul-09 22:21N 26°04' W 080°08'0 0.0
2018-Jul-09 21:54N 26°04' W 080°08'0 0.0
2018-Jul-09 21:24N 26°04' W 080°08'0 0.0
2018-Jul-09 20:54N 26°04' W 080°08'0 0.0
2018-Jul-09 20:28N 26°04' W 080°08'0 0.0
2018-Jul-09 19:58N 26°04' W 080°08'0 0.0
2018-Jul-09 19:28N 26°04' W 080°08'0 0.0
2018-Jul-09 18:58N 26°04' W 080°08'0 0.0
2018-Jul-09 18:28N 26°04' W 080°08'0 0.0
2018-Jul-09 18:00N 26°04' W 080°08'0 0.0
2018-Jul-09 17:28N 26°04' W 080°08'0 0.0
2018-Jul-09 16:59N 26°04' W 080°08'0 0.0
2018-Jul-09 16:30N 26°04' W 080°08'0 0.1
2018-Jul-09 16:00N 26°04' W 080°08'0 0.0
2018-Jul-09 15:30N 26°04' W 080°08'0 0.0
2018-Jul-09 15:00N 26°04' W 080°08'0 0.0
2018-Jul-09 14:30N 26°04' W 080°08'0 0.0
2018-Jul-09 14:00N 26°04' W 080°08'0 0.0
2018-Jul-09 13:30N 26°04' W 080°08'0 0.0
2018-Jul-09 13:00N 26°04' W 080°08'0 0.0
2018-Jul-09 12:30N 26°04' W 080°08'0 0.0
2018-Jul-09 12:00N 26°04' W 080°08'0 0.0
2018-Jul-09 11:30N 26°04' W 080°08'0 0.0
2018-Jul-09 11:00N 26°04' W 080°08'0 0.0
2018-Jul-09 10:30N 26°04' W 080°08'0 0.0
2018-Jul-09 09:59N 26°04' W 080°08'0 0.0
2018-Jul-09 09:30N 26°04' W 080°08'0 0.0
2018-Jul-09 08:59N 26°04' W 080°08'0 0.0
2018-Jul-09 08:30N 26°04' W 080°08'0 0.0
2018-Jul-09 08:00N 26°04' W 080°08'0 0.0
2018-Jul-09 07:30N 26°04' W 080°08'0 0.0
2018-Jul-09 07:00N 26°04' W 080°08'0 0.0
2018-Jul-09 06:30N 26°04' W 080°08'0 0.0
2018-Jul-09 06:00N 26°04' W 080°08'0 0.0
2018-Jul-09 05:30N 26°04' W 080°08'0 0.0
2018-Jul-09 05:00N 26°04' W 080°08'0 0.0
2018-Jul-09 04:30N 26°04' W 080°08'0 0.0
2018-Jul-09 04:00N 26°04' W 080°08'0 0.0
2018-Jul-09 03:30N 26°04' W 080°08'0 0.0
2018-Jul-09 03:00N 26°04' W 080°08'0 0.0
2018-Jul-09 02:30N 26°04' W 080°08'0 0.0
2018-Jul-09 02:00N 26°04' W 080°08'0 0.0
2018-Jul-09 01:30N 26°04' W 080°08'0 0.0
2018-Jul-09 01:00N 26°04' W 080°08'0 0.0
2018-Jul-09 00:30N 26°04' W 080°08'0 0.0
2018-Jul-09 00:00N 26°04' W 080°08'0 0.0
2018-Jul-08 23:30N 26°04' W 080°08'0 0.0
2018-Jul-08 23:00N 26°04' W 080°08'0 0.0
2018-Jul-08 22:30N 26°04' W 080°08'0 0.0
2018-Jul-08 22:00N 26°04' W 080°08'0 0.0
2018-Jul-08 21:30N 26°04' W 080°08'0 0.0
2018-Jul-08 21:00N 26°04' W 080°08'0 0.0
2018-Jul-08 20:30N 26°04' W 080°08'0 0.0
2018-Jul-08 19:59N 26°04' W 080°08'0 0.0
2018-Jul-08 19:30N 26°04' W 080°08'0 0.0
2018-Jul-08 19:00N 26°04' W 080°08'0 0.0
2018-Jul-08 18:30N 26°04' W 080°08'0 0.0
2018-Jul-08 18:00N 26°04' W 080°08'0 0.0
2018-Jul-08 17:30N 26°04' W 080°08'0 0.0
2018-Jul-08 17:00N 26°04' W 080°08'0 0.0
2018-Jul-08 16:30N 26°04' W 080°08'0 0.0
2018-Jul-08 15:59N 26°04' W 080°08'0 0.0
2018-Jul-08 15:30N 26°04' W 080°08'0 0.0
2018-Jul-08 15:00N 26°04' W 080°08'0 0.0
2018-Jul-08 14:30N 26°04' W 080°08'0 0.0
2018-Jul-08 14:00N 26°04' W 080°08'0 0.0
2018-Jul-08 13:30N 26°04' W 080°08'0 0.0
2018-Jul-08 13:00N 26°04' W 080°08'0 0.0
2018-Jul-08 12:30N 26°04' W 080°08'0 0.1
2018-Jul-08 11:59N 26°04' W 080°08'0 0.1
2018-Jul-08 11:30N 26°04' W 080°08'0 0.0
2018-Jul-08 11:00N 26°04' W 080°08'0 0.0
2018-Jul-08 10:30N 26°04' W 080°08'0 0.0
2018-Jul-08 10:00N 26°04' W 080°08'0 0.0
2018-Jul-08 09:30N 26°04' W 080°08'0 0.0
2018-Jul-08 09:00N 26°04' W 080°08'0 0.0
2018-Jul-08 08:30N 26°04' W 080°08'0 0.0
2018-Jul-08 08:00N 26°04' W 080°08'0 0.0
2018-Jul-08 07:30N 26°04' W 080°08'0 0.0
2018-Jul-08 07:00N 26°04' W 080°08'0 0.0
2018-Jul-08 06:30N 26°04' W 080°08'0 0.0
2018-Jul-08 06:00N 26°04' W 080°08'0 0.0
2018-Jul-08 05:30N 26°04' W 080°08'0 0.0
2018-Jul-08 05:00N 26°04' W 080°08'0 0.0
2018-Jul-08 04:30N 26°04' W 080°08'0 0.0
2018-Jul-08 04:00N 26°04' W 080°08'0 0.0
2018-Jul-08 03:30N 26°04' W 080°08'0 0.0
2018-Jul-08 03:00N 26°04' W 080°08'0 0.0
2018-Jul-08 02:30N 26°04' W 080°08'1 1.6
2018-Jul-08 02:00N 26°04' W 080°07'3 6.3
2018-Jul-08 01:30N 26°05' W 080°04'4 7.8
2018-Jul-08 01:00N 26°03' W 079°60'2 3.0
2018-Jul-08 00:30N 26°02' W 079°60'2 3.1
2018-Jul-08 00:00N 26°00' W 080°00'3 5.7
2018-Jul-07 23:30N 25°58' W 079°59'3 6.8
2018-Jul-07 23:00N 25°55' W 079°57'3 6.8
2018-Jul-07 22:30N 25°52' W 079°55'3 6.8
2018-Jul-07 22:00N 25°49' W 079°53'3 6.8
2018-Jul-07 21:30N 25°46' W 079°50'3 6.8
2018-Jul-07 21:00N 25°44' W 079°48'3 6.8
2018-Jul-07 20:30N 25°41' W 079°45'  
Track history (hours):
 
Tides and Currents Weather Stations Pressure Air Temp Water Temp Dewpoint Dewpoint Depression Visibility Wind Speed Wind Dir Waves Ship Positions

Bahamas Express

Last reported at 2018-Jul-17 20:15 UTC. Time now 2018-Jul-18 14:42 UTC.
Position N 26°05' W 079°39'.

Length 52 m; draft 2 m.

Type: Cargo ship. MMSI: 371923000.

Date/timePositionNaut miles runAvg speedWind from/ knotsBaromVisibWave heightAir tempDewpointWater temp
2018-Jul-17 20:15N 26°05' W 079°39'2 9.6
2018-Jul-17 20:00N 26°05' W 079°42'5 9.5
2018-Jul-17 19:30N 26°05' W 079°47'5 9.5
2018-Jul-17 19:00N 26°04' W 079°52'5 9.4
2018-Jul-17 18:31N 26°04' W 079°57'4 8.6
2018-Jul-17 18:00N 26°04' W 080°02'4 8.6
2018-Jul-17 17:30N 26°06' W 080°07'2 4.1
2018-Jul-17 17:00N 26°04' W 080°08'0 0.0
2018-Jul-17 16:30N 26°04' W 080°08'0 0.0
2018-Jul-17 15:59N 26°04' W 080°08'0 0.0
2018-Jul-17 15:29N 26°04' W 080°08'0 0.0
2018-Jul-17 15:00N 26°04' W 080°08'0 0.0
2018-Jul-17 14:28N 26°04' W 080°08'0 0.0
2018-Jul-17 13:59N 26°04' W 080°08'0 0.0
2018-Jul-17 13:30N 26°04' W 080°08'0 0.0
2018-Jul-17 13:00N 26°04' W 080°08'0 0.0
2018-Jul-17 12:30N 26°04' W 080°08'0 0.0
2018-Jul-17 11:59N 26°04' W 080°08'0 0.0
2018-Jul-17 11:30N 26°04' W 080°08'0 0.2
2018-Jul-17 11:00N 26°04' W 080°08'3 5.9
2018-Jul-17 10:30N 26°06' W 080°05'5 9.8
2018-Jul-17 10:00N 26°04' W 080°00'5 9.7
2018-Jul-17 09:30N 26°02' W 079°55'5 9.2
2018-Jul-17 09:00N 25°60' W 079°51'5 9.1
2018-Jul-17 08:30N 25°58' W 079°46'5 9.0
2018-Jul-17 08:00N 25°57' W 079°41'5 0.2
2018-Jul-15 23:46N 26°00' W 079°45'2 8.0
2018-Jul-15 23:30N 26°01' W 079°47'4 7.6
2018-Jul-15 23:00N 26°02' W 079°51'4 8.7
2018-Jul-15 22:30N 26°03' W 079°56'4 8.7
2018-Jul-15 22:00N 26°04' W 080°01'5 9.8
2018-Jul-15 21:30N 26°06' W 080°06'3 5.0
2018-Jul-15 21:00N 26°04' W 080°08'0 0.0
2018-Jul-15 20:30N 26°04' W 080°08'0 0.0
2018-Jul-15 20:00N 26°04' W 080°08'0 0.0
2018-Jul-15 19:30N 26°04' W 080°08'0 0.0
2018-Jul-15 19:00N 26°04' W 080°08'0 0.0
2018-Jul-15 18:30N 26°04' W 080°08'0 0.0
2018-Jul-15 18:00N 26°04' W 080°08'0 0.0
2018-Jul-15 17:30N 26°04' W 080°08'0 0.0
2018-Jul-15 16:59N 26°04' W 080°08'0 0.0
2018-Jul-15 16:30N 26°04' W 080°08'0 0.0
2018-Jul-15 16:00N 26°04' W 080°08'0 0.0
2018-Jul-15 15:30N 26°04' W 080°08'0 0.0
2018-Jul-15 15:00N 26°04' W 080°08'0 0.0
2018-Jul-15 14:30N 26°04' W 080°08'0 0.0
2018-Jul-15 14:00N 26°04' W 080°08'0 0.0
2018-Jul-15 13:30N 26°04' W 080°08'0 0.0
2018-Jul-15 13:00N 26°04' W 080°08'0 0.0
2018-Jul-15 12:29N 26°04' W 080°08'0 0.0
2018-Jul-15 12:00N 26°04' W 080°08'0 0.1
2018-Jul-15 11:30N 26°04' W 080°08'3 5.9
2018-Jul-15 11:00N 26°06' W 080°05'5 9.3
2018-Jul-15 10:30N 26°03' W 080°01'4 7.6
2018-Jul-15 10:00N 26°02' W 079°57'4 7.4
2018-Jul-15 09:30N 25°60' W 079°53'4 7.6
2018-Jul-15 08:59N 25°58' W 079°50'4 7.5
2018-Jul-15 08:30N 25°56' W 079°46'4 7.5
2018-Jul-15 07:59N 25°54' W 079°43'8 0.2
2018-Jul-13 05:28N 26°01' W 079°40'4 9.3
2018-Jul-13 05:00N 26°01' W 079°45'5 9.3
2018-Jul-13 04:30N 26°01' W 079°50'4 8.8
2018-Jul-13 04:00N 26°01' W 079°54'4 8.7
2018-Jul-13 03:30N 26°02' W 079°59'5 9.3
2018-Jul-13 03:00N 26°05' W 080°04'3 5.8
2018-Jul-13 02:30N 26°05' W 080°07'1 2.7
2018-Jul-13 02:00N 26°04' W 080°08'0 0.0
2018-Jul-13 01:30N 26°04' W 080°08'0 0.0
2018-Jul-13 01:00N 26°04' W 080°08'0 0.0
2018-Jul-13 00:30N 26°04' W 080°08'0 0.0
2018-Jul-13 00:00N 26°04' W 080°08'0 0.0
2018-Jul-12 23:30N 26°04' W 080°08'0 0.0
2018-Jul-12 23:00N 26°04' W 080°08'0 0.0
2018-Jul-12 22:31N 26°04' W 080°08'0 0.0
2018-Jul-12 22:00N 26°04' W 080°08'0 0.0
2018-Jul-12 21:30N 26°04' W 080°08'0 0.0
2018-Jul-12 21:00N 26°04' W 080°08'0 0.0
2018-Jul-12 20:30N 26°04' W 080°08'0 0.0
2018-Jul-12 20:00N 26°04' W 080°08'0 0.0
2018-Jul-12 19:30N 26°04' W 080°08'0 0.0
2018-Jul-12 19:00N 26°04' W 080°08'0 0.0
2018-Jul-12 18:30N 26°04' W 080°08'1 1.9
2018-Jul-12 18:00N 26°04' W 080°07'3 5.8
2018-Jul-12 17:30N 26°05' W 080°04'510.6
2018-Jul-12 17:01N 26°03' W 079°58'510.8
2018-Jul-12 16:31N 26°01' W 079°53'611.5
2018-Jul-12 16:00N 25°58' W 079°47'510.6
2018-Jul-12 15:30N 25°56' W 079°42'28 0.6
2018-Jul-10 13:04N 26°24' W 079°44'111.5
2018-Jul-10 12:57N 26°23' W 079°45'511.4
2018-Jul-10 12:30N 26°19' W 079°49'611.4
2018-Jul-10 12:00N 26°15' W 079°53'611.3
2018-Jul-10 11:31N 26°12' W 079°58'510.9
2018-Jul-10 11:00N 26°08' W 080°02'5 9.0
2018-Jul-10 10:30N 26°06' W 080°07'2 3.5
2018-Jul-10 09:52N 26°04' W 080°08'0 0.0
2018-Jul-10 09:22N 26°04' W 080°08'0 0.0
2018-Jul-10 08:52N 26°04' W 080°08'0 0.0
2018-Jul-10 08:22N 26°04' W 080°08'0 0.0
2018-Jul-10 07:55N 26°04' W 080°08'0 0.0
2018-Jul-10 07:23N 26°04' W 080°08'0 0.0
2018-Jul-10 06:55N 26°04' W 080°08'0 0.0
2018-Jul-10 06:25N 26°04' W 080°08'0 0.0
2018-Jul-10 05:55N 26°04' W 080°08'0 0.0
2018-Jul-10 05:25N 26°04' W 080°08'0 0.0
2018-Jul-10 04:58N 26°04' W 080°08'0 0.0
2018-Jul-10 04:24N 26°04' W 080°08'0 0.0
2018-Jul-10 03:49N 26°04' W 080°08'0 0.0
2018-Jul-10 03:28N 26°04' W 080°08'0 0.0
2018-Jul-10 02:53N 26°04' W 080°08'0 0.0
2018-Jul-10 02:28N 26°04' W 080°08'0 0.0
2018-Jul-10 01:56N 26°04' W 080°08'0 0.0
2018-Jul-10 01:28N 26°04' W 080°08'0 0.0
2018-Jul-10 00:47N 26°04' W 080°08'0 0.0
2018-Jul-10 00:21N 26°04' W 080°08'0 0.2
2018-Jul-09 23:58N 26°04' W 080°08'0 0.0
2018-Jul-09 23:28N 26°04' W 080°08'0 0.0
2018-Jul-09 22:54N 26°04' W 080°08'0 0.0
2018-Jul-09 22:21N 26°04' W 080°08'0 0.0
2018-Jul-09 21:54N 26°04' W 080°08'0 0.0
2018-Jul-09 21:24N 26°04' W 080°08'0 0.0
2018-Jul-09 20:54N 26°04' W 080°08'0 0.0
2018-Jul-09 20:28N 26°04' W 080°08'0 0.0
2018-Jul-09 19:58N 26°04' W 080°08'0 0.0
2018-Jul-09 19:28N 26°04' W 080°08'0 0.0
2018-Jul-09 18:58N 26°04' W 080°08'0 0.0
2018-Jul-09 18:28N 26°04' W 080°08'0 0.0
2018-Jul-09 18:00N 26°04' W 080°08'0 0.0
2018-Jul-09 17:28N 26°04' W 080°08'0 0.0
2018-Jul-09 16:59N 26°04' W 080°08'0 0.0
2018-Jul-09 16:30N 26°04' W 080°08'0 0.1
2018-Jul-09 16:00N 26°04' W 080°08'0 0.0
2018-Jul-09 15:30N 26°04' W 080°08'0 0.0
2018-Jul-09 15:00N 26°04' W 080°08'0 0.0
2018-Jul-09 14:30N 26°04' W 080°08'0 0.0
2018-Jul-09 14:00N 26°04' W 080°08'0 0.0
2018-Jul-09 13:30N 26°04' W 080°08'0 0.0
2018-Jul-09 13:00N 26°04' W 080°08'0 0.0
2018-Jul-09 12:30N 26°04' W 080°08'0 0.0
2018-Jul-09 12:00N 26°04' W 080°08'0 0.0
2018-Jul-09 11:30N 26°04' W 080°08'0 0.0
2018-Jul-09 11:00N 26°04' W 080°08'0 0.0
2018-Jul-09 10:30N 26°04' W 080°08'0 0.0
2018-Jul-09 09:59N 26°04' W 080°08'0 0.0
2018-Jul-09 09:30N 26°04' W 080°08'0 0.0
2018-Jul-09 08:59N 26°04' W 080°08'0 0.0
2018-Jul-09 08:30N 26°04' W 080°08'0 0.0
2018-Jul-09 08:00N 26°04' W 080°08'0 0.0
2018-Jul-09 07:30N 26°04' W 080°08'0 0.0
2018-Jul-09 07:00N 26°04' W 080°08'0 0.0
2018-Jul-09 06:30N 26°04' W 080°08'0 0.0
2018-Jul-09 06:00N 26°04' W 080°08'0 0.0
2018-Jul-09 05:30N 26°04' W 080°08'0 0.0
2018-Jul-09 05:00N 26°04' W 080°08'0 0.0
2018-Jul-09 04:30N 26°04' W 080°08'0 0.0
2018-Jul-09 04:00N 26°04' W 080°08'0 0.0
2018-Jul-09 03:30N 26°04' W 080°08'0 0.0
2018-Jul-09 03:00N 26°04' W 080°08'0 0.0
2018-Jul-09 02:30N 26°04' W 080°08'0 0.0
2018-Jul-09 02:00N 26°04' W 080°08'0 0.0
2018-Jul-09 01:30N 26°04' W 080°08'0 0.0
2018-Jul-09 01:00N 26°04' W 080°08'0 0.0
2018-Jul-09 00:30N 26°04' W 080°08'0 0.0
2018-Jul-09 00:00N 26°04' W 080°08'0 0.0
2018-Jul-08 23:30N 26°04' W 080°08'0 0.0
2018-Jul-08 23:00N 26°04' W 080°08'0 0.0
2018-Jul-08 22:30N 26°04' W 080°08'0 0.0
2018-Jul-08 22:00N 26°04' W 080°08'0 0.0
2018-Jul-08 21:30N 26°04' W 080°08'0 0.0
2018-Jul-08 21:00N 26°04' W 080°08'0 0.0
2018-Jul-08 20:30N 26°04' W 080°08'0 0.0
2018-Jul-08 19:59N 26°04' W 080°08'0 0.0
2018-Jul-08 19:30N 26°04' W 080°08'0 0.0
2018-Jul-08 19:00N 26°04' W 080°08'0 0.0
2018-Jul-08 18:30N 26°04' W 080°08'0 0.0
2018-Jul-08 18:00N 26°04' W 080°08'0 0.0
2018-Jul-08 17:30N 26°04' W 080°08'0 0.0
2018-Jul-08 17:00N 26°04' W 080°08'0 0.0
2018-Jul-08 16:30N 26°04' W 080°08'0 0.0
2018-Jul-08 15:59N 26°04' W 080°08'0 0.0
2018-Jul-08 15:30N 26°04' W 080°08'0 0.0
2018-Jul-08 15:00N 26°04' W 080°08'0 0.0
2018-Jul-08 14:30N 26°04' W 080°08'0 0.0
2018-Jul-08 14:00N 26°04' W 080°08'0 0.0
2018-Jul-08 13:30N 26°04' W 080°08'0 0.0
2018-Jul-08 13:00N 26°04' W 080°08'0 0.0
2018-Jul-08 12:30N 26°04' W 080°08'0 0.1
2018-Jul-08 11:59N 26°04' W 080°08'0 0.1
2018-Jul-08 11:30N 26°04' W 080°08'0 0.0
2018-Jul-08 11:00N 26°04' W 080°08'0 0.0
2018-Jul-08 10:30N 26°04' W 080°08'0 0.0
2018-Jul-08 10:00N 26°04' W 080°08'0 0.0
2018-Jul-08 09:30N 26°04' W 080°08'0 0.0
2018-Jul-08 09:00N 26°04' W 080°08'0 0.0
2018-Jul-08 08:30N 26°04' W 080°08'0 0.0
2018-Jul-08 08:00N 26°04' W 080°08'0 0.0
2018-Jul-08 07:30N 26°04' W 080°08'0 0.0
2018-Jul-08 07:00N 26°04' W 080°08'0 0.0
2018-Jul-08 06:30N 26°04' W 080°08'0 0.0
2018-Jul-08 06:00N 26°04' W 080°08'0 0.0
2018-Jul-08 05:30N 26°04' W 080°08'0 0.0
2018-Jul-08 05:00N 26°04' W 080°08'0 0.0
2018-Jul-08 04:30N 26°04' W 080°08'0 0.0
2018-Jul-08 04:00N 26°04' W 080°08'0 0.0
2018-Jul-08 03:30N 26°04' W 080°08'0 0.0
2018-Jul-08 03:00N 26°04' W 080°08'0 0.0
2018-Jul-08 02:30N 26°04' W 080°08'1 1.6
2018-Jul-08 02:00N 26°04' W 080°07'3 6.3
2018-Jul-08 01:30N 26°05' W 080°04'4 7.8
2018-Jul-08 01:00N 26°03' W 079°60'2 3.0
2018-Jul-08 00:30N 26°02' W 079°60'2 3.1
2018-Jul-08 00:00N 26°00' W 080°00'3 5.7
2018-Jul-07 23:30N 25°58' W 079°59'3 6.8
2018-Jul-07 23:00N 25°55' W 079°57'3 6.8
2018-Jul-07 22:30N 25°52' W 079°55'3 6.8
2018-Jul-07 22:00N 25°49' W 079°53'3 6.8
2018-Jul-07 21:30N 25°46' W 079°50'3 6.8
2018-Jul-07 21:00N 25°44' W 079°48'3 6.8
2018-Jul-07 20:30N 25°41' W 079°45'  

Dump ship's entire track history